Regional Weather Roundup
Issued by NWS

Home | Current Version | Previous Version | Text Only | Print | Product List | Glossary Off
Versions: 1 2 3 4 5 6 7 8 9 10 11 12 13 14 15 16 17 18 19 20 21 22 23 24 25 26 27 28 29 30 31 32 33 34 35 36 37 38 39 40 41 42 43 44 45 46 47 48 49 50

000
ASUS43 KBIS 290602
RWRND

NORTH DAKOTA REGIONAL WEATHER ROUNDUP
NATIONAL WEATHER SERVICE BISMARCK ND
100 AM CDT SAT AUG 29 2015

NOTE: "FAIR" INDICATES FEW OR NO CLOUDS BELOW 12,000 FEET WITH NO
SIGNIFICANT WEATHER AND/OR OBSTRUCTIONS TO VISIBILITY.


NDZ001>003-009>011-017-290700-
NORTHWEST NORTH DAKOTA

CITY           SKY/WX    TMP DP  RH WIND       PRES   REMARKS
WILLISTON      CLOUDY    61  48  62 W3        29.92S HAZE
6HR MIN TEMP:  56; 6HR MAX TEMP:  87;

MINOT          CLOUDY    65  60  84 CALM      29.88F
MINOT AFB      FAIR      62  61  96 S7        29.87S
$$

NDZ018>021-031>035-040>046-290700-
SOUTHWEST NORTH DAKOTA

CITY           SKY/WX    TMP DP  RH WIND       PRES   REMARKS
BISMARCK       CLEAR     66  64  93 SE5       29.92S
6HR MIN TEMP:  65; 6HR MAX TEMP:  87;

DICKINSON      CLOUDY    56  48  74 S8        29.96F HAZE
GARRISON         N/A     62  30  29 CALM      29.91S
6HR MIN TEMP:  61; 6HR MAX TEMP:  81;

HETTINGER ARPT CLOUDY    56  50  80 CALM      30.01F HAZE
$$

NDZ004>008-012>016-024-026-027-054-290700-
NORTHEAST NORTH DAKOTA

CITY           SKY/WX    TMP DP  RH WIND       PRES   REMARKS
GRAND FORKS    FAIR      67  65  93 S6        29.88R
GRND FRKS AFB  FAIR      66  65  96 SW5       29.88R
DEVILS LAKE    FAIR      66  61  82 CALM      29.89R
$$

NDZ022-023-025-028>030-036>039-047>053-290700-
SOUTHEAST NORTH DAKOTA

CITY           SKY/WX    TMP DP  RH WIND       PRES   REMARKS
FARGO          FAIR      69  63  81 S12       29.93R
6HR MIN TEMP:  69; 6HR MAX TEMP:  80;

JAMESTOWN      FAIR      67  64  90 S5        29.92R
$$




USA.gov is the U.S. government's official web portal to all federal, state and local government web resources and services.